エレーニン彗星

479P/Elenin (2024)

English version
Home page
Updated on July 18, 2024

---------------------------------------------------------------------

・ プロフィール

符号 479P/2023 WM26
検出日 2023年11月18日
検出光度 21.7等
検出者 Pan-STARRS 2 telescope (Haleakala)

・ 写真集

・ 軌道要素

Epoch 2024 Mar. 31.0 TT = JDT 2460400.5
T 2024 May 5.24416 TT                                   Rudenko
q   1.2437039            (2000.0)            P               Q
n   0.07392505     Peri.  263.52500     -0.91135894     +0.33512920
a   5.6226574      Node   295.83399     -0.18492902     -0.85207896
e   0.7788050      Incl.   15.39784     -0.36773108     -0.40205703
P  13.3
>From 661 observations 2011 June 12-2024 Mar. 18, mean residual 0".5.

・ 星図

・ 光度変化

        m1 = 16.0 + 5 logΔ + 10.0 log r  [    ,-115]  (              〜2024年 1月11日)
        m1 =  9.5 + 5 logΔ + 25   log r  [-115,    ]  (2024年 1月11日〜              )

---------------------------------------------------------------------

軌道要素はM.P.E.C. 2024-F34に掲載されたものです。
星図はステラナビゲータ Ver.11 (アストロアーツ) で作成したものです。
光度グラフはComet for Windowsで作成したものです。

---------------------------------------------------------------------

Copyright(C) Seiichi Yoshida (comet@aerith.net). All rights reserved.